Weather History for Sheboygan, WI

Change the Weather History Date:

Friday, May 17, 2013

  Actual Average Record
Temperature  
Mean Temperature 48 °F -  
Max Temperature 51 °F 64 °F 84 °F (1998)
Min Temperature 46 °F 44 °F 30 °F (2002)
Degree Days  
Heating Degree Days 17    
Moisture  
Dew Point 45 °F    
Average Humidity 88    
Maximum Humidity 100    
Minimum Humidity 63    
Precipitation  
Precipitation 0.49 in - - ()
Sea Level Pressure  
Sea Level Pressure 30.11 in    
Wind  
Wind Speed 9 mph (NE)    
Max Wind Speed 12 mph    
Max Gust Speed -    
Visibility 9 miles    
Events Rain    
Averages and records for this station are not official NWS values.
T = Trace of Precipitation, MM = Missing Value Source: NWS Daily Summary

Daily Weather History Graph

Daily Weather History Graph

Search for Another Location

Airport:

Trip Planner

Search our weather history database for the weather conditions in past years. The results will help you decide how hot, cold, wet, or windy it might be!

Date:

Astronomy

May. 17, 2013 Rise Set
Actual Time 5:23 AM CDT 8:12 PM CDT
Civil Twilight 4:50 AM CDT 8:46 PM CDT
Nautical Twilight 4:07 AM CDT 9:28 PM CDT
Astronomical Twilight 3:18 AM CDT 10:18 PM CDT
Moon 12:01 PM CDT (5/17) 1:00 AM CDT (5/17)
Length of Visible Light 15h 56m
Length of Day
14h 48m
Waxing Crescent, 45% of the Moon is Illuminated
May 17
Waxing Crescent
May 17
First Quarter
May 24
Full
May 31
Last Quarter
Jun 8
New

Hourly Weather History & Observations

Time (CDT) Temp. Windchill Dew Point Humidity Pressure Visibility Wind Dir Wind Speed Gust Speed Precip Events Conditions
12:53 AM 50.0 °F - 37.9 °F 63% 30.04 in 10.0 mi ENE 11.5 mph - N/A   Scattered Clouds
1:53 AM 50.0 °F - 39.0 °F 66% 30.04 in 10.0 mi NE 11.5 mph - N/A   Clear
2:53 AM 48.9 °F - 39.0 °F 69% 30.04 in 10.0 mi NE 11.5 mph - N/A   Overcast
3:53 AM 48.0 °F - 39.9 °F 74% 30.06 in 10.0 mi NE 10.4 mph - N/A   Mostly Cloudy
4:53 AM 46.9 °F - 39.9 °F 77% 30.06 in 10.0 mi NE 9.2 mph - N/A   Mostly Cloudy
5:53 AM 46.0 °F 41.4 °F 39.9 °F 79% 30.08 in 10.0 mi NE 9.2 mph - N/A   Clear
6:53 AM 46.9 °F - 41.0 °F 80% 30.12 in 10.0 mi NE 6.9 mph - N/A   Scattered Clouds
7:53 AM 48.9 °F - 42.1 °F 77% 30.14 in 10.0 mi NE 9.2 mph - N/A   Overcast
8:53 AM 50.0 °F - 43.0 °F 77% 30.16 in 10.0 mi North 3.5 mph - 0.00 in   Overcast
9:53 AM 50.0 °F - 44.1 °F 80% 30.17 in 10.0 mi East 3.5 mph - N/A   Overcast
10:53 AM 46.9 °F - 44.1 °F 90% 30.17 in 6.0 mi NE 11.5 mph - 0.16 in Rain Rain
11:53 AM 46.0 °F 40.6 °F 44.1 °F 93% 30.17 in 10.0 mi NE 11.5 mph - 0.11 in Rain Light Rain
12:53 PM 46.9 °F - 46.0 °F 97% 30.14 in 7.0 mi ENE 11.5 mph - 0.07 in Rain Light Rain
1:53 PM 48.0 °F - 46.0 °F 93% 30.14 in 4.0 mi East 8.1 mph - 0.07 in Rain Rain
2:53 PM 48.0 °F - 46.9 °F 96% 30.13 in 10.0 mi ENE 9.2 mph - 0.05 in Rain Light Rain
3:53 PM 48.9 °F - 48.0 °F 97% 30.13 in 10.0 mi ENE 5.8 mph - 0.02 in Rain Light Rain
4:53 PM 48.9 °F - 46.9 °F 93% 30.11 in 10.0 mi ENE 8.1 mph - 0.01 in   Overcast
5:53 PM 50.0 °F - 48.0 °F 93% 30.11 in 10.0 mi NE 5.8 mph - N/A   Overcast
6:53 PM 48.9 °F - 48.0 °F 97% 30.11 in 10.0 mi NE 6.9 mph - N/A   Overcast
7:24 PM 48.2 °F - 48.2 °F 100% 30.09 in 10.0 mi NE 11.5 mph - N/A   Overcast
7:53 PM 48.9 °F - 48.0 °F 97% 30.11 in 7.0 mi NE 9.2 mph - N/A   Overcast
8:53 PM 48.9 °F - 48.0 °F 97% 30.13 in 10.0 mi NE 9.2 mph - N/A   Overcast
9:09 PM 48.2 °F - 48.2 °F 100% 30.12 in 10.0 mi NE 5.8 mph - N/A   Overcast
9:53 PM 48.9 °F - 48.9 °F 100% 30.13 in 10.0 mi ENE 8.1 mph - N/A   Overcast
10:05 PM 48.2 °F - 48.2 °F 100% 30.12 in 10.0 mi NE 6.9 mph - N/A   Overcast
10:53 PM 48.9 °F - 48.0 °F 97% 30.12 in 10.0 mi ENE 10.4 mph - N/A   Overcast
11:53 PM 48.0 °F - 48.0 °F 100% 30.11 in 10.0 mi NE 8.1 mph - N/A   Overcast